Location: Warszawa
(52.2322°N, 21.0083°E)
Time: 02:23:14
(UTC+02:00)

Envisat - Visible Passes

Search period start: 22 September 2020 00:00
Search period end: 02 October 2020 00:00
Orbit: 764 x 766 km, 98.1° (Epoch: 21 September)

Date Brightness Start Highest point End Pass type
(mag) Time Alt. Az. Time Alt. Az. Time Alt. Az.
22 Sep 5.9 05:40:41 10° NE 05:44:37 22° E 05:48:31 10° SE visible
23 Sep 6.6 05:05:52 10° ENE 05:07:16 11° E 05:08:40 10° E visible
24 Sep 6.1 19:06:53 10° SW 19:10:22 18° W 19:13:52 10° NW visible
25 Sep 6.1 05:29:39 10° NE 05:33:07 18° E 05:36:34 10° SE visible
26 Sep 6.7 19:34:42 10° W 19:36:12 11° W 19:37:44 10° WNW visible
27 Sep 5.5 05:54:27 10° NNE 05:58:51 28° E 06:03:12 10° SSE visible
27 Sep 6.0 18:54:56 10° SW 18:58:53 22° W 19:02:49 10° NW visible
28 Sep 6.3 05:18:45 10° NE 05:21:36 15° E 05:24:26 10° ESE visible
29 Sep 6.4 19:22:04 10° WSW 19:24:40 14° W 19:27:17 10° NW visible
30 Sep 5.8 05:43:18 10° NE 05:47:22 24° E 05:51:25 10° SE visible
30 Sep 5.6 18:43:06 10° SSW 18:47:23 27° W 18:51:41 10° NW visible
01 Oct 6.5 05:08:08 10° ENE 05:10:03 12° E 05:11:58 10° ESE visible
